Weather History for KMMV - November, 2012

Change the Weather History Date:

Saturday, November 3, 2012

  Actual Average Record
Temperature  
Mean Temperature 58 °F 47 °F  
Max Temperature 62 °F 56 °F 73 °F (2010)
Min Temperature 53 °F 39 °F 25 °F (1953)
Degree Days  
Heating Degree Days 7 18  
Month to date heating degree days 29 52  
Since 1 July heating degree days 457 675  
Cooling Degree Days 0 0  
Month to date cooling degree days 0 0  
Year to date cooling degree days 300 215  
Growing Degree Days 8 (Base 50)    
Moisture  
Dew Point 53 °F    
Average Humidity 86    
Maximum Humidity 93    
Minimum Humidity 78    
Precipitation  
Precipitation 0.05 in 0.19 in 2.10 in (1983)
Month to date precipitation 0.65 0.57  
Year to date precipitation 35.13 27.43  
Snow  
Snow 0.00 in - - ()
Month to date snowfall 0.0  
Snow Depth 0.00 in    
Sea Level Pressure  
Sea Level Pressure 30.09 in    
Wind  
Wind Speed 2 mph (SSW)    
Max Wind Speed 13 mph    
Max Gust Speed 16 mph    
Visibility 7 miles    
Events Rain    
T = Trace of Precipitation, MM = Missing Value Source: NWS Daily Summary

Daily Weather History Graph

Daily Weather History Graph

Search for Another Location

Airport or City:

Trip Planner

Search our weather history database for the weather conditions in past years. The results will help you decide how hot, cold, wet, or windy it might be!

Date:

Astronomy

Nov. 03, 2012 Rise Set
Actual Time 7:54 AM PDT 5:56 PM PDT
Civil Twilight 7:24 AM PDT 6:27 PM PDT
Nautical Twilight 6:49 AM PDT 7:02 PM PDT
Astronomical Twilight 6:14 AM PDT 7:36 PM PDT
Moon 9:38 PM PDT (11/3) 12:07 PM PDT (11/3)
Length of Visible Light 11h 03m
Length of Day
10h 01m
Waning Gibbous, 79% of the Moon is Illuminated
Nov 3
Waning Gibbous
Nov 6
Last Quarter
Nov 13
New
Nov 20
First Quarter
Nov 28
Full

Hourly Weather History & Observations

Time (PDT) Temp. Dew Point Humidity Pressure Visibility Wind Dir Wind Speed Gust Speed Precip Events Conditions
12:27 AM 53.6 °F 50.0 °F 88% 30.01 in 6.0 mi Calm Calm - 0.01 in   Overcast
12:35 AM 53.6 °F 51.8 °F 94% 30.01 in 5.0 mi Calm Calm - 0.01 in   Overcast
12:53 AM 53.1 °F 51.1 °F 93% 30.02 in 3.0 mi Calm Calm - 0.02 in Rain Light Rain
1:43 AM 53.6 °F 50.0 °F 88% 30.01 in 2.5 mi Calm Calm - 0.01 in Rain Light Rain
1:53 AM 53.1 °F 51.1 °F 93% 30.01 in 3.0 mi Calm Calm - 0.01 in Rain Light Rain
2:29 AM 53.6 °F 51.8 °F 94% 30.02 in 3.0 mi Calm Calm - 0.01 in   Overcast
2:50 AM 53.6 °F 51.8 °F 94% 30.02 in 4.0 mi Calm Calm - 0.01 in   Overcast
2:53 AM 53.1 °F 51.1 °F 93% 30.02 in 3.0 mi Calm Calm - 0.01 in   Overcast
3:03 AM 53.6 °F 51.8 °F 94% 30.02 in 2.5 mi Calm Calm - 0.00 in Rain Light Rain
3:32 AM 53.6 °F 51.8 °F 94% 30.03 in 3.0 mi Calm Calm - 0.01 in Rain Light Rain
3:53 AM 53.1 °F 51.1 °F 93% 30.02 in 3.0 mi Calm Calm - 0.01 in   Overcast
4:53 AM 54.0 °F 51.1 °F 90% 30.04 in 4.0 mi Calm Calm - 0.01 in   Overcast
5:06 AM 53.6 °F 51.8 °F 94% 30.04 in 4.0 mi Calm Calm - N/A   Overcast
5:22 AM 53.6 °F 51.8 °F 94% 30.04 in 3.0 mi Calm Calm - N/A   Overcast
5:49 AM 53.6 °F 51.8 °F 94% 30.05 in 3.0 mi Calm Calm - N/A   Overcast
5:53 AM 54.0 °F 52.0 °F 93% 30.05 in 3.0 mi Calm Calm - N/A   Overcast
6:02 AM 53.6 °F 51.8 °F 94% 30.04 in 2.5 mi Calm Calm - N/A   Overcast
6:20 AM 53.6 °F 51.8 °F 94% 30.05 in 3.0 mi Calm Calm - N/A   Overcast
6:53 AM 54.0 °F 52.0 °F 93% 30.06 in 4.0 mi Calm Calm - N/A   Overcast
7:11 AM 53.6 °F 51.8 °F 94% 30.06 in 4.0 mi Calm Calm - N/A   Overcast
7:53 AM 54.0 °F 52.0 °F 93% 30.07 in 5.0 mi Calm Calm - N/A   Overcast
8:53 AM 55.0 °F 53.1 °F 93% 30.09 in 6.0 mi Calm Calm - N/A   Overcast
9:17 AM 55.4 °F 53.6 °F 94% 30.09 in 6.0 mi Calm Calm - N/A   Overcast
9:23 AM 55.4 °F 53.6 °F 94% 30.09 in 7.0 mi Calm Calm - N/A   Overcast
9:53 AM 55.9 °F 53.1 °F 90% 30.10 in 10.0 mi Calm Calm - N/A   Overcast
10:18 AM 55.4 °F 53.6 °F 94% 30.11 in 10.0 mi Calm Calm - N/A   Overcast
10:53 AM 57.9 °F 54.0 °F 87% 30.12 in 10.0 mi Calm Calm - N/A   Overcast
11:51 AM 60.8 °F 55.4 °F 82% 30.14 in 10.0 mi SW 9.2 mph - N/A   Overcast
11:53 AM 60.1 °F 55.0 °F 83% 30.14 in 10.0 mi SW 8.1 mph - N/A   Overcast
12:01 PM 60.8 °F 55.4 °F 82% 30.13 in 10.0 mi SSW 5.8 mph - N/A   Overcast
12:53 PM 61.0 °F 55.0 °F 81% 30.14 in 10.0 mi SW 8.1 mph - N/A   Overcast
1:42 PM 62.6 °F 55.4 °F 77% 30.13 in 10.0 mi SSW 8.1 mph - N/A   Overcast
1:53 PM 62.1 °F 55.0 °F 78% 30.13 in 10.0 mi SSW 11.5 mph - N/A   Overcast
2:32 PM 62.6 °F 55.4 °F 77% 30.14 in 10.0 mi SSW 9.2 mph - N/A   Overcast
2:53 PM 62.1 °F 55.0 °F 78% 30.14 in 10.0 mi SSW 11.5 mph - N/A   Overcast
3:53 PM 62.1 °F 55.0 °F 78% 30.16 in 10.0 mi SSW 8.1 mph - 0.01 in   Overcast
4:53 PM 61.0 °F 55.0 °F 81% 30.17 in 10.0 mi SSW 4.6 mph - N/A   Partly Cloudy
5:53 PM 59.0 °F 55.0 °F 87% 30.17 in 10.0 mi SSW 3.5 mph - N/A   Mostly Cloudy
6:53 PM 57.9 °F 55.0 °F 90% 30.18 in 10.0 mi Calm Calm - 0.00 in   Overcast
7:53 PM 59.0 °F 55.0 °F 87% 30.17 in 10.0 mi Calm Calm - 0.00 in   Overcast
8:53 PM 57.0 °F 54.0 °F 89% 30.17 in 10.0 mi East 3.5 mph - 0.00 in   Overcast
9:53 PM 57.0 °F 54.0 °F 89% 30.18 in 10.0 mi Calm Calm - N/A   Overcast
10:53 PM 57.0 °F 55.0 °F 93% 30.19 in 10.0 mi Calm Calm - N/A   Overcast
11:53 PM 55.9 °F 54.0 °F 93% 30.19 in 8.0 mi Calm Calm - N/A   Overcast